Regional Weather Roundup
Issued by NWS

Home | Current Version | Previous Version | Text Only | Print | Product List | Glossary Off
Versions: 1 2 3 4 5 6 7 8 9 10 11 12 13 14 15 16 17 18 19 20 21 22 23 24 25 26 27 28 29 30 31 32 33 34 35 36 37 38 39 40 41 42 43 44 45 46 47 48 49 50

000
ASUS45 KSLC 221110
RWRUT

UTAH REGIONAL WEATHER ROUNDUP
NATIONAL WEATHER SERVICE SALT LAKE CITY UT
500 AM MDT MON SEP 22 2014

UTZ001>011-023>025-221200-

NORTHERN UTAH

CITY           SKY/WX    TMP DP  RH WIND       PRES   REMARKS
HILL AFB       MOCLDY    58  53  83 E9        30.16S
LOGAN          FOG       54  54 100 N3        30.15S VSB 3/4
OGDEN          MOCLDY    58  55  90 S7        30.15R
PROVO AIRPORT  MOCLDY    59  52  77 SE10      30.18R
SALT LAKE CITY CLOUDY    63  57  81 S3        30.14R
VERNAL         FOG       52  52 100 W3        30.24R VSB 1/4
WENDOVER       PTCLDY    55  52  88 N3        30.16R
HEBER CITY     CLOUDY    52  50  93 CALM      30.22S
WEST JORDAN    CLOUDY    61  55  82 S8        30.16R

$$

UTZ012>022-026-027-221200-

SOUTHERN UTAH

CITY           SKY/WX    TMP DP  RH WIND       PRES   REMARKS
BRYCE CANYON   CLEAR     45  43  93 W3        30.34S
CEDAR CITY     PTCLDY    51  49  92 SW5       30.22F
MILFORD        PTCLDY    56  53  90 W9        30.17F
MOAB/CYNLANDS  CLOUDY    61  58  90 W18G24    30.18R
PRICE          CLOUDY    55  53  93 CALM      30.24S
ST GEORGE      CLOUDY    66  55  68 S5        30.08S
KANAB            N/A     55  55 100 E3        30.23R

$$

REGIONAL REPORTS     COLORADO/ARIZONA

CITY           SKY/WX    TMP DP  RH WIND       PRES   REMARKS
CRAIG, CO      MOCLDY    53  49  86 CALM      30.26S
GRAND JUNCTION PTCLDY    61  56  83 E12       30.19R
RIFLE          CLOUDY    59  56  89 CALM      30.24F
MONTROSE       CLOUDY    60  58  92 W3        30.28S
CORTEZ         CLOUDY    60  58  92 CALM      30.28R
PAGE, AZ       CLEAR     66  57  72 CALM      30.14R
GRAND CANYON   CLEAR     41  39  93 NE5       30.30S
KINGMAN        CLEAR     60  42  51 MISG      30.08S
FLAGSTAFF      CLEAR     47  44  90 CALM      30.32S

$$

REGIONAL REPORTS    NEVADA/IDAHO/WYOMING

CITY           SKY/WX    TMP DP  RH WIND       PRES   REMARKS
LAS VEGAS, NV  CLEAR     76  49  38 SW3       29.95R
ELY            PTCLDY    45  44  97 SE7       30.24S
ELKO           PTCLDY    45  41  86 CALM      30.17R
POCATELLO, ID  MOCLDY    54  54 100 N3        30.15S
BURLEY         CLOUDY    55  52  89 SE6       30.10S
EVANSTON, WY   MOCLDY    47  44  90 CALM      30.26F
ROCK SPRINGS   FOG       47  46  97 SW3       30.27R VSB 1/4

$$



USA.gov is the U.S. government's official web portal to all federal, state and local government web resources and services.